GW4081 Weather Reports


Display with metric or nautical units.
time (UTC)temp
F
wind
direction
speed
MPH
gust
MPH
rain 1hr
in
rain 24hr
in
rain mn
in
humidity
%
barometer
mb
20260831133604 83 174 9.0 12.0 0.00 0.00 0.00 59 1016.8
20260831133103 83 170 8.0 12.0 0.00 0.00 0.00 60 1016.8
20260831132104 82 180 9.0 12.0 0.00 0.00 0.00 60 1016.7
20260831131604 82 182 7.0 12.0 0.00 0.00 0.00 60 1016.6
20260831131104 81 183 7.0 12.0 0.00 0.00 0.00 60 1016.6
20260831130605 81 192 7.0 12.0 0.00 0.00 0.00 60 1016.5
20260831130104 81 180 8.0 12.0 0.00 0.00 0.00 60 1016.5
20260831125604 80 185 8.0 13.0 0.00 0.00 0.00 60 1016.4
20260831125103 80 180 7.0 13.0 0.00 0.00 0.00 60 1016.3
20260831124604 80 184 7.0 13.0 0.00 0.00 0.00 60 1016.3
20260831124104 80 178 6.0 12.0 0.00 0.00 0.00 61 1016.2
20260831123604 79 172 7.0 12.0 0.00 0.00 0.00 61 1016.1
20260831123104 79 165 7.0 12.0 0.00 0.00 0.00 61 1016.0
20260831122604 79 181 7.0 12.0 0.00 0.00 0.00 61 1015.9
20260831122105 79 177 7.0 10.0 0.00 0.00 0.00 61 1015.9
20260831121604 78 170 6.0 10.0 0.00 0.00 0.00 61 1015.9
20260831120604 78 174 6.0 10.0 0.00 0.00 0.00 61 1015.8
20260831120104 78 186 7.0 10.0 0.00 0.00 0.00 61 1015.7
20260831115104 78 188 7.0 9.0 0.00 0.00 0.00 61 1015.5
20260831114604 78 182 6.0 8.0 0.00 0.00 0.00 60 1015.4
20260831114104 78 185 6.0 9.0 0.00 0.00 0.00 60 1015.4
20260831113604 79 173 6.0 10.0 0.00 0.00 0.00 59 1015.4
20260831113104 79 183 6.0 10.0 0.00 0.00 0.00 59 1015.5
20260831112604 79 186 7.0 10.0 0.00 0.00 0.00 59 1015.4
20260831112104 79 185 7.0 12.0 0.00 0.00 0.00 59 1015.3
20260831111604 80 189 7.0 12.0 0.00 0.00 0.00 58 1015.2
20260831111105 80 185 7.0 12.0 0.00 0.00 0.00 58 1015.2
20260831110604 80 183 7.0 13.0 0.00 0.00 0.00 58 1015.1
20260831105604 80 183 9.0 13.0 0.00 0.00 0.00 58 1014.9
20260831105104 80 186 8.0 12.0 0.00 0.00 0.00 58 1014.9
20260831104604 80 184 7.0 12.0 0.00 0.00 0.00 58 1014.8
20260831104104 80 188 8.0 14.0 0.00 0.00 0.00 57 1014.8
20260831103603 80 181 8.0 14.0 0.00 0.00 0.00 57 1014.8
20260831102104 80 180 7.0 10.0 0.00 0.00 0.00 57 1014.9
20260831101604 81 188 7.0 12.0 0.00 0.00 0.00 56 1014.8
20260831101104 81 194 8.0 12.0 0.00 0.00 0.00 56 1014.7
20260831100604 81 191 7.0 12.0 0.00 0.00 0.00 56 1014.7
20260831095604 81 188 7.0 12.0 0.00 0.00 0.00 56 1014.7
20260831095104 81 187 7.0 12.0 0.00 0.00 0.00 55 1014.7
20260831094604 81 190 7.0 12.0 0.00 0.00 0.00 55 1014.7
20260831094104 82 184 7.0 12.0 0.00 0.00 0.00 55 1014.7
20260831093104 82 190 8.0 14.0 0.00 0.00 0.00 55 1014.6
20260831092604 82 190 7.0 14.0 0.00 0.00 0.00 55 1014.5
20260831092104 82 190 8.0 12.0 0.00 0.00 0.00 55 1014.4
20260831091604 82 188 8.0 12.0 0.00 0.00 0.00 55 1014.5
20260831091103 82 185 7.0 12.0 0.00 0.00 0.00 55 1014.4
20260831090603 83 186 9.0 12.0 0.00 0.00 0.00 55 1014.3
20260831085604 83 185 9.0 12.0 0.00 0.00 0.00 54 1014.2
20260831085104 83 190 8.0 12.0 0.00 0.00 0.00 54 1014.3
20260831084606 83 191 7.0 13.0 0.00 0.00 0.00 54 1014.3
20260831084104 84 188 9.0 14.0 0.00 0.00 0.00 53 1014.3
20260831083604 84 181 9.0 14.0 0.00 0.00 0.00 53 1014.2
20260831083104 84 180 8.0 12.0 0.00 0.00 0.00 53 1014.2
20260831082605 84 190 8.0 13.0 0.00 0.00 0.00 53 1014.2
20260831081604 84 184 7.0 12.0 0.00 0.00 0.00 53 1014.2
20260831081104 84 176 9.0 12.0 0.00 0.00 0.00 53 1014.2
20260831080604 84 187 8.0 14.0 0.00 0.00 0.00 53 1014.2
20260831080104 84 180 9.0 16.0 0.00 0.00 0.00 52 1014.2
20260831075604 85 168 9.0 16.0 0.00 0.00 0.00 52 1014.2
20260831075104 84 185 8.0 15.0 0.00 0.00 0.00 52 1014.2
20260831074604 85 178 7.0 15.0 0.00 0.00 0.00 52 1014.2
20260831073604 85 174 8.0 16.0 0.00 0.00 0.00 51 1014.1
20260831071603 85 175 9.0 16.0 0.00 0.00 0.00 51 1014.2
20260831071104 85 172 8.0 16.0 0.00 0.00 0.00 50 1014.1
20260831070604 85 166 9.0 17.0 0.00 0.00 0.00 50 1014.2
20260831070104 85 171 9.0 20.0 0.00 0.00 0.00 50 1014.2
20260831065104 86 178 12.0 20.0 0.00 0.00 0.00 49 1014.1
20260831063103 86 167 10.0 15.0 0.00 0.00 0.00 49 1014.1
20260831062604 86 173 9.0 16.0 0.00 0.00 0.00 49 1014.1
20260831061604 86 172 10.0 14.0 0.00 0.00 0.00 49 1014.1
20260831061104 86 173 10.0 17.0 0.00 0.00 0.00 49 1014.1
20260831060604 86 176 8.0 17.0 0.00 0.00 0.00 49 1014.1
20260831060104 86 163 7.0 16.0 0.00 0.00 0.00 49 1014.1
20260831055104 86 168 10.0 16.0 0.00 0.00 0.00 48 1014.0
20260831054604 87 165 11.0 16.0 0.00 0.00 0.00 48 1013.9
20260831054104 87 167 10.0 18.0 0.00 0.00 0.00 48 1013.9
20260831053604 87 172 12.0 18.0 0.00 0.00 0.00 47 1013.9
20260831053104 87 157 10.0 18.0 0.00 0.00 0.00 47 1013.8
20260831052104 87 181 10.0 18.0 0.00 0.00 0.00 47 1013.8
20260831051104 88 173 10.0 16.0 0.00 0.00 0.00 46 1013.7
20260831050604 88 175 11.0 17.0 0.00 0.00 0.00 46 1013.7
20260831050104 88 173 11.0 20.0 0.00 0.00 0.00 46 1013.7
20260831045104 88 154 12.0 20.0 0.00 0.00 0.00 46 1013.6
20260831044104 89 165 11.0 21.0 0.00 0.00 0.00 45 1013.6
20260831043604 89 165 10.0 21.0 0.00 0.00 0.00 46 1013.6
20260831043104 89 167 11.0 18.0 0.00 0.00 0.00 45 1013.5
20260831042604 89 176 10.0 18.0 0.00 0.00 0.00 45 1013.6
20260831042104 89 171 10.0 15.0 0.00 0.00 0.00 45 1013.6
20260831041603 89 168 9.0 14.0 0.00 0.00 0.00 45 1013.6
20260831041104 89 159 10.0 14.0 0.00 0.00 0.00 45 1013.6
20260831040603 89 163 9.0 14.0 0.00 0.00 0.00 45 1013.5
20260831040104 89 167 10.0 14.0 0.00 0.00 0.00 45 1013.5
20260831035604 89 163 10.0 15.0 0.00 0.00 0.00 45 1013.5
20260831035103 90 165 9.0 15.0 0.00 0.00 0.00 45 1013.4
20260831034604 90 164 9.0 13.0 0.00 0.00 0.00 45 1013.4
20260831034104 90 166 8.0 15.0 0.00 0.00 0.00 44 1013.4
20260831033104 90 174 9.0 16.0 0.00 0.00 0.00 44 1013.4
20260831032604 91 154 10.0 16.0 0.00 0.00 0.00 44 1013.5
20260831032104 91 160 10.0 16.0 0.00 0.00 0.00 44 1013.4
20260831031604 91 156 10.0 17.0 0.00 0.00 0.00 44 1013.4
20260831031104 91 171 8.0 17.0 0.00 0.00 0.00 44 1013.3
20260831030604 91 163 11.0 20.0 0.00 0.00 0.00 43 1013.2
20260831030104 92 167 12.0 20.0 0.00 0.00 0.00 43 1013.2
20260831025603 92 153 11.0 16.0 0.00 0.00 0.00 43 1013.2
20260831024603 92 152 12.0 16.0 0.00 0.00 0.00 42 1013.0
20260831024103 92 146 10.0 16.0 0.00 0.00 0.00 42 1012.9
20260831023604 93 161 9.0 17.0 0.00 0.00 0.00 42 1012.8
20260831022603 93 161 12.0 16.0 0.00 0.00 0.00 41 1012.6
20260831021604 93 151 10.0 20.0 0.00 0.00 0.00 40 1012.4
20260831021104 94 160 7.0 13.0 0.00 0.00 0.00 40 1012.4
20260831020603 94 155 8.0 13.0 0.00 0.00 0.00 39 1012.2
20260831015603 94 164 7.0 13.0 0.00 0.00 0.00 38 1012.1
20260831014604 95 148 7.0 12.0 0.00 0.00 0.00 38 1011.9
20260831014104 95 172 6.0 13.0 0.00 0.00 0.00 38 1011.9
20260831013604 95 172 7.0 13.0 0.00 0.00 0.00 37 1011.9
20260831013104 95 167 6.0 12.0 0.00 0.00 0.00 37 1011.8
20260831012104 95 164 5.0 8.0 0.00 0.00 0.00 37 1011.7
20260831011603 96 154 5.0 9.0 0.00 0.00 0.00 36 1011.7
20260831011104 96 163 6.0 10.0 0.00 0.00 0.00 36 1011.7
20260831010604 96 161 7.0 12.0 0.00 0.00 0.00 36 1011.7
20260831005603 97 181 6.0 12.0 0.00 0.00 0.00 36 1011.7
20260831005104 97 170 6.0 10.0 0.00 0.00 0.00 36 1011.6
20260831004604 97 180 7.0 12.0 0.00 0.00 0.00 35 1011.6
20260831004104 98 176 6.0 13.0 0.00 0.00 0.00 35 1011.6
20260831003603 98 168 9.0 13.0 0.00 0.00 0.00 35 1011.5
20260831003104 98 170 6.0 12.0 0.00 0.00 0.00 35 1011.5
20260831002604 99 184 7.0 13.0 0.00 0.00 0.00 35 1011.6
20260831001603 99 186 10.0 16.0 0.00 0.00 0.00 34 1011.5
20260831001104 99 178 10.0 16.0 0.00 0.00 0.00 33 1011.5
20260831000104 100 168 10.0 13.0 0.00 0.00 0.00 33 1011.5
20260830235104 100 174 7.0 15.0 0.00 0.00 0.00 32 1011.6
20260830234604 101 171 10.0 15.0 0.00 0.00 0.00 32 1011.5
20260830234104 101 190 6.0 14.0 0.00 0.00 0.00 32 1011.6
20260830233604 101 178 9.0 16.0 0.00 0.00 0.00 32 1011.6
20260830233103 101 178 8.0 16.0 0.00 0.00 0.00 31 1011.6
20260830232104 102 182 7.0 18.0 0.00 0.00 0.00 31 1011.5
20260830231603 101 181 10.0 18.0 0.00 0.00 0.00 31 1011.5
20260830231104 102 157 12.0 18.0 0.00 0.00 0.00 31 1011.5
20260830230603 102 183 10.0 17.0 0.00 0.00 0.00 31 1011.5
20260830230103 102 161 12.0 17.0 0.00 0.00 0.00 31 1011.5
20260830225603 102 168 11.0 16.0 0.00 0.00 0.00 31 1011.6
20260830225103 102 195 9.0 20.0 0.00 0.00 0.00 31 1011.6
20260830224604 102 192 10.0 20.0 0.00 0.00 0.00 31 1011.5
20260830223604 102 186 11.0 21.0 0.00 0.00 0.00 32 1011.5
20260830223104 102 168 10.0 21.0 0.00 0.00 0.00 31 1011.4
20260830222104 102 169 10.0 17.0 0.00 0.00 0.00 32 1011.4
20260830221604 102 154 10.0 17.0 0.00 0.00 0.00 31 1011.5
20260830221104 102 176 12.0 17.0 0.00 0.00 0.00 31 1011.5
20260830220603 103 176 12.0 18.0 0.00 0.00 0.00 31 1011.5
20260830220103 103 209 12.0 18.0 0.00 0.00 0.00 30 1011.5
20260830215605 103 172 12.0 18.0 0.00 0.00 0.00 31 1011.5
20260830215103 103 207 13.0 18.0 0.00 0.00 0.00 31 1011.6
20260830214603 103 206 8.0 16.0 0.00 0.00 0.00 31 1011.6
20260830214103 103 207 11.0 17.0 0.00 0.00 0.00 31 1011.7
20260830213603 103 155 8.0 18.0 0.00 0.00 0.00 30 1011.8
20260830213103 103 202 12.0 18.0 0.00 0.00 0.00 31 1011.9
20260830212104 103 200 9.0 16.0 0.00 0.00 0.00 31 1011.9
20260830211103 103 166 7.0 18.0 0.00 0.00 0.00 32 1012.1
20260830210603 103 161 12.0 21.0 0.00 0.00 0.00 32 1012.1
20260830210103 103 190 13.0 21.0 0.00 0.00 0.00 32 1012.2
20260830205604 103 184 9.0 17.0 0.00 0.00 0.00 32 1012.2
20260830204103 103 164 12.0 20.0 0.00 0.00 0.00 32 1012.5
20260830203604 103 180 7.0 17.0 0.00 0.00 0.00 32 1012.5
20260830202603 103 180 11.0 17.0 0.00 0.00 0.00 31 1012.7
20260830202104 103 161 9.0 17.0 0.00 0.00 0.00 32 1012.6
20260830201603 103 184 9.0 20.0 0.00 0.00 0.00 33 1012.8
20260830201103 103 186 13.0 20.0 0.00 0.00 0.00 32 1012.8
20260830200603 103 172 11.0 20.0 0.00 0.00 0.00 32 1013.0
20260830200103 103 208 12.0 18.0 0.00 0.00 0.00 33 1013.1
20260830195103 103 166 12.0 20.0 0.00 0.00 0.00 33 1013.0
20260830194604 102 196 13.0 18.0 0.00 0.00 0.00 33 1013.1
20260830194104 103 153 12.0 18.0 0.00 0.00 0.00 33 1013.2
20260830192604 102 204 12.0 20.0 0.00 0.00 0.00 34 1013.3
20260830192103 101 207 7.0 20.0 0.00 0.00 0.00 36 1013.3
20260830191603 102 173 12.0 20.0 0.00 0.00 0.00 35 1013.4
20260830191104 102 169 13.0 20.0 0.00 0.00 0.00 34 1013.4
20260830190603 102 166 13.0 20.0 0.00 0.00 0.00 35 1013.3
20260830190103 102 183 10.0 20.0 0.00 0.00 0.00 36 1013.4
20260830185603 101 191 10.0 20.0 0.00 0.00 0.00 36 1013.5
20260830185104 101 184 13.0 20.0 0.00 0.00 0.00 36 1013.5
20260830184604 101 181 11.0 23.0 0.00 0.00 0.00 38 1013.5
20260830183603 101 218 13.0 22.0 0.00 0.00 0.00 35 1013.8
20260830183104 101 197 14.0 21.0 0.00 0.00 0.00 37 1013.9
20260830182603 100 195 10.0 20.0 0.00 0.00 0.00 38 1013.9
20260830182103 101 195 13.0 20.0 0.00 0.00 0.00 38 1014.0
20260830181604 101 206 12.0 18.0 0.00 0.00 0.00 38 1014.1
20260830181103 100 227 11.0 23.0 0.00 0.00 0.00 38 1014.2
20260830180603 100 192 13.0 23.0 0.00 0.00 0.00 39 1014.2
20260830180103 100 180 16.0 23.0 0.00 0.00 0.00 38 1014.3
20260830175103 100 211 13.0 22.0 0.00 0.00 0.00 39 1014.4
20260830174603 100 187 13.0 22.0 0.00 0.00 0.00 39 1014.3
20260830174105 99 211 16.0 21.0 0.00 0.00 0.00 39 1014.4
20260830173605 100 216 12.0 21.0 0.00 0.00 0.00 40 1014.5
20260830173105 99 182 14.0 24.0 0.00 0.00 0.00 39 1014.6
20260830172605 99 192 11.0 24.0 0.00 0.00 0.00 40 1014.7
20260830172105 99 188 11.0 21.0 0.00 0.00 0.00 41 1014.8
20260830171605 99 230 12.0 21.0 0.00 0.00 0.00 41 1014.9
20260830171105 98 197 14.0 21.0 0.00 0.00 0.00 41 1014.9
20260830170604 98 224 15.0 21.0 0.00 0.00 0.00 41 1014.9
20260830170105 98 205 16.0 21.0 0.00 0.00 0.00 42 1014.9
20260830165605 98 217 15.0 21.0 0.00 0.00 0.00 41 1015.0
20260830165105 98 228 13.0 23.0 0.00 0.00 0.00 42 1015.1
20260830164605 98 211 13.0 23.0 0.00 0.00 0.00 41 1015.1
20260830164105 98 192 12.0 21.0 0.00 0.00 0.00 43 1015.1
20260830163605 97 216 16.0 22.0 0.00 0.00 0.00 42 1015.2
20260830163105 97 212 15.0 22.0 0.00 0.00 0.00 43 1015.2
20260830162605 97 191 13.0 21.0 0.00 0.00 0.00 44 1015.1
20260830161605 96 205 15.0 22.0 0.00 0.00 0.00 44 1015.2
20260830161105 96 189 12.0 21.0 0.00 0.00 0.00 45 1015.2
20260830160605 95 188 13.0 24.0 0.00 0.00 0.00 46 1015.2
20260830160105 95 197 15.0 24.0 0.00 0.00 0.00 46 1015.3
20260830155605 94 202 16.0 22.0 0.00 0.00 0.00 46 1015.2
20260830155105 94 198 14.0 24.0 0.00 0.00 0.00 47 1015.2
20260830154105 93 191 15.0 22.0 0.00 0.00 0.00 47 1015.2
20260830153605 92 203 17.0 23.0 0.00 0.00 0.00 48 1015.2
20260830153105 92 179 16.0 23.0 0.00 0.00 0.00 48 1015.1
20260830152605 92 187 15.0 21.0 0.00 0.00 0.00 49 1015.1
20260830152105 92 186 14.0 22.0 0.00 0.00 0.00 49 1015.2
20260830151605 92 199 15.0 22.0 0.00 0.00 0.00 49 1015.2
20260830150105 90 187 14.0 25.0 0.00 0.00 0.00 51 1015.2
20260830145604 90 198 16.0 25.0 0.00 0.00 0.00 52 1015.2
20260830145104 89 192 16.0 23.0 0.00 0.00 0.00 52 1015.3
20260830144604 89 188 13.0 24.0 0.00 0.00 0.00 52 1015.4
20260830144105 88 196 12.0 24.0 0.00 0.00 0.00 53 1015.3
20260830143605 88 180 13.0 24.0 0.00 0.00 0.00 54 1015.3
20260830143105 87 195 10.0 20.0 0.00 0.00 0.00 55 1015.4
20260830142605 87 200 13.0 20.0 0.00 0.00 0.00 55 1015.5
20260830142105 86 194 12.0 20.0 0.00 0.00 0.00 55 1015.5
20260830141605 86 187 10.0 18.0 0.00 0.00 0.00 56 1015.5
20260830141105 85 191 11.0 21.0 0.00 0.00 0.00 57 1015.5
20260830140605 85 173 12.0 21.0 0.00 0.00 0.00 57 1015.5
20260830140105 84 178 12.0 20.0 0.00 0.00 0.00 58 1015.6
20260830135605 84 195 13.0 18.0 0.00 0.00 0.00 58 1015.6
20260830135104 83 180 13.0 20.0 0.00 0.00 0.00 59 1015.6
20260830134105 82 183 11.0 20.0 0.00 0.00 0.00 60 1015.5